When you browse on this site, cookies collect data to enhance your experience and personalize the content and advertising you see.
Visit our Privacy Policy to learn more. By continuing to use the site, you agree to this use of cookies and data.
  • în România
  • Lista ţărilor
  • Pe 7 zile
  • Temperatura apei
  • Meteo pe hartă
  • Widget-uri
  • user-avatar
    Intrare

    Meteo pe oră la Blaj

    Astăzi, 14 Noiembrie, Joi

    Timp Temperatura Precipitaţii Vânt Presiune Umiditate
    00:00 +15°C° 0 mm 1 m/s 727 mmHg 80%
    01:00 +14°C° 0 mm 1 m/s 727 mmHg 80%
    02:00 +14°C° 0 mm 1 m/s 727 mmHg 82%
    03:00 +14°C° 0 mm 1 m/s 727 mmHg 83%
    04:00 +14°C° 0 mm 1 m/s 727 mmHg 84%
    05:00 +13°C° 0 mm 1 m/s 727 mmHg 85%
    06:00 +13°C° 0 mm 1 m/s 727 mmHg 85%
    07:00 +13°C° 0 mm 1 m/s 727 mmHg 86%
    08:00 +13°C° 0 mm 1 m/s 728 mmHg 85%
    09:00 +14°C° 0 mm 1 m/s 728 mmHg 81%
    10:00 +15°C° 0 mm 1 m/s 728 mmHg 76%
    11:00 +16°C° 0 mm 1 m/s 728 mmHg 72%
    12:00 +18°C° 0 mm 1 m/s 728 mmHg 69%
    13:00 +18°C° 0 mm 1 m/s 728 mmHg 66%
    14:00 +19°C° 0 mm 1 m/s 728 mmHg 63%
    15:00 +18°C° 0.2 mm 1 m/s 728 mmHg 69%
    16:00 +16°C° 0.2 mm 1 m/s 728 mmHg 74%
    17:00 +15°C° 0.2 mm 1 m/s 728 mmHg 80%
    18:00 +13°C° 0 mm 0 m/s 728 mmHg 80%
    19:00 +13°C° 0 mm 0 m/s 728 mmHg 80%
    20:00 +13°C° 0 mm 0 m/s 728 mmHg 81%
    21:00 +13°C° 0 mm 0 m/s 728 mmHg 81%
    22:00 +13°C° 0 mm 0 m/s 728 mmHg 81%
    23:00 +13°C° 0 mm 0 m/s 728 mmHg 81%

    Mâine, 15 Noiembrie, Vineri

    Timp Temperatura Precipitaţii Vânt Presiune Umiditate
    00:00 +13°C° 0 mm 1 m/s 728 mmHg 81%
    01:00 +13°C° 0 mm 1 m/s 728 mmHg 82%
    02:00 +13°C° 0 mm 1 m/s 728 mmHg 82%
    03:00 +13°C° 0.1 mm 1 m/s 728 mmHg 84%
    04:00 +12°C° 0.1 mm 1 m/s 728 mmHg 86%
    05:00 +12°C° 0.1 mm 1 m/s 728 mmHg 88%
    06:00 +12°C° 0 mm 1 m/s 729 mmHg 89%
    07:00 +12°C° 0 mm 1 m/s 729 mmHg 89%
    08:00 +12°C° 0 mm 1 m/s 729 mmHg 90%
    09:00 +13°C° 0 mm 1 m/s 730 mmHg 84%
    10:00 +14°C° 0 mm 1 m/s 730 mmHg 78%
    11:00 +15°C° 0 mm 1 m/s 730 mmHg 72%
    12:00 +16°C° 0 mm 1 m/s 731 mmHg 68%
    13:00 +18°C° 0 mm 1 m/s 731 mmHg 64%
    14:00 +18°C° 0 mm 1 m/s 731 mmHg 60%
    15:00 +16°C° 0 mm 1 m/s 731 mmHg 64%
    16:00 +15°C° 0 mm 1 m/s 731 mmHg 68%
    17:00 +14°C° 0 mm 1 m/s 731 mmHg 73%
    18:00 +14°C° 0 mm 1 m/s 731 mmHg 75%
    19:00 +13°C° 0 mm 1 m/s 732 mmHg 77%
    20:00 +13°C° 0 mm 1 m/s 732 mmHg 80%
    21:00 +12°C° 0 mm 1 m/s 732 mmHg 81%
    22:00 +12°C° 0 mm 1 m/s 733 mmHg 82%
    23:00 +12°C° 0 mm 1 m/s 733 mmHg 84%

    Poimâine, 16 Noiembrie, Sâmbătă

    Timp Temperatura Precipitaţii Vânt Presiune Umiditate
    00:00 +11°C° 0 mm 1 m/s 733 mmHg 84%
    01:00 +11°C° 0 mm 1 m/s 733 mmHg 84%
    02:00 +11°C° 0 mm 1 m/s 733 mmHg 84%
    03:00 +10°C° 0 mm 1 m/s 733 mmHg 84%
    04:00 +10°C° 0 mm 1 m/s 733 mmHg 84%
    05:00 +10°C° 0 mm 1 m/s 733 mmHg 84%
    06:00 +10°C° 0 mm 1 m/s 734 mmHg 83%
    07:00 +9°C° 0 mm 0 m/s 734 mmHg 83%
    08:00 +8°C° 0 mm 0 m/s 734 mmHg 83%
    09:00 +10°C° 0 mm 0 m/s 734 mmHg 75%
    10:00 +13°C° 0 mm 1 m/s 734 mmHg 67%
    11:00 +15°C° 0 mm 1 m/s 734 mmHg 60%
    12:00 +15°C° 0 mm 1 m/s 734 mmHg 57%
    13:00 +16°C° 0 mm 1 m/s 734 mmHg 53%
    14:00 +18°C° 0 mm 1 m/s 734 mmHg 50%
    15:00 +15°C° 0 mm 0 m/s 734 mmHg 55%
    16:00 +14°C° 0 mm 0 m/s 734 mmHg 59%
    17:00 +13°C° 0 mm 0 m/s 734 mmHg 64%
    18:00 +12°C° 0 mm 0 m/s 734 mmHg 65%
    19:00 +13°C° 0 mm 1 m/s 734 mmHg 66%
    20:00 +12°C° 0 mm 1 m/s 734 mmHg 66%
    21:00 +12°C° 0 mm 1 m/s 734 mmHg 67%
    22:00 +12°C° 0 mm 1 m/s 734 mmHg 68%
    23:00 +12°C° 0 mm 1 m/s 734 mmHg 69%

    17 Noiembrie, Duminică

    Timp Temperatura Precipitaţii Vânt Presiune Umiditate
    00:00 +11°C° 0 mm 1 m/s 734 mmHg 70%
    01:00 +11°C° 0 mm 1 m/s 734 mmHg 72%
    02:00 +11°C° 0 mm 1 m/s 734 mmHg 73%
    03:00 +10°C° 0 mm 1 m/s 734 mmHg 74%
    04:00 +10°C° 0 mm 1 m/s 733 mmHg 75%
    05:00 +10°C° 0 mm 1 m/s 733 mmHg 76%
    06:00 +10°C° 0 mm 1 m/s 733 mmHg 76%
    07:00 +10°C° 0 mm 1 m/s 733 mmHg 76%
    08:00 +9°C° 0 mm 1 m/s 733 mmHg 76%
    09:00 +11°C° 0 mm 1 m/s 733 mmHg 70%
    10:00 +13°C° 0 mm 1 m/s 733 mmHg 65%
    11:00 +14°C° 0 mm 2 m/s 733 mmHg 59%
    12:00 +15°C° 0 mm 2 m/s 733 mmHg 57%
    13:00 +16°C° 0 mm 2 m/s 733 mmHg 55%
    14:00 +17°C° 0 mm 2 m/s 732 mmHg 54%
    15:00 +16°C° 0 mm 2 m/s 732 mmHg 58%
    16:00 +15°C° 0 mm 2 m/s 732 mmHg 62%
    17:00 +14°C° 0 mm 1 m/s 731 mmHg 67%
    18:00 +14°C° 0 mm 1 m/s 731 mmHg 68%
    19:00 +13°C° 0 mm 1 m/s 731 mmHg 70%
    20:00 +13°C° 0 mm 1 m/s 731 mmHg 71%
    21:00 +12°C° 0 mm 1 m/s 731 mmHg 72%
    22:00 +12°C° 0 mm 1 m/s 731 mmHg 73%
    23:00 +12°C° 0 mm 1 m/s 731 mmHg 73%

    18 Noiembrie, Luni

    Timp Temperatura Precipitaţii Vânt Presiune Umiditate
    00:00 +11°C° 0 mm 1 m/s 730 mmHg 74%
    01:00 +11°C° 0 mm 1 m/s 730 mmHg 75%
    02:00 +11°C° 0 mm 1 m/s 729 mmHg 75%
    03:00 +10°C° 0 mm 1 m/s 729 mmHg 75%
    04:00 +10°C° 0 mm 1 m/s 729 mmHg 75%
    05:00 +10°C° 0 mm 1 m/s 729 mmHg 75%
    06:00 +10°C° 0 mm 1 m/s 729 mmHg 75%
    07:00 +10°C° 0 mm 1 m/s 729 mmHg 74%
    08:00 +9°C° 0 mm 1 m/s 729 mmHg 74%
    09:00 +11°C° 0 mm 1 m/s 729 mmHg 69%
    10:00 +13°C° 0 mm 2 m/s 730 mmHg 64%
    11:00 +14°C° 0 mm 2 m/s 730 mmHg 58%
    12:00 +15°C° 0 mm 2 m/s 730 mmHg 55%
    13:00 +17°C° 0 mm 2 m/s 731 mmHg 52%
    14:00 +18°C° 0 mm 3 m/s 731 mmHg 49%
    15:00 +16°C° 0 mm 2 m/s 731 mmHg 54%
    16:00 +15°C° 0 mm 2 m/s 731 mmHg 59%
    17:00 +14°C° 0 mm 1 m/s 732 mmHg 65%
    18:00 +13°C° 0 mm 1 m/s 732 mmHg 68%
    19:00 +12°C° 0 mm 1 m/s 732 mmHg 70%
    20:00 +12°C° 0 mm 1 m/s 732 mmHg 73%
    21:00 +11°C° 0 mm 1 m/s 733 mmHg 75%
    22:00 +10°C° 0 mm 0 m/s 733 mmHg 76%
    23:00 +9°C° 0 mm 0 m/s 733 mmHg 78%

    19 Noiembrie, Marţi

    Timp Temperatura Precipitaţii Vânt Presiune Umiditate
    00:00 +9°C° 0 mm 0 m/s 733 mmHg 78%
    01:00 +9°C° 0 mm 0 m/s 733 mmHg 78%
    02:00 +9°C° 0 mm 0 m/s 733 mmHg 78%
    03:00 +8°C° 0 mm 0 m/s 733 mmHg 79%
    04:00 +8°C° 0 mm 0 m/s 733 mmHg 81%
    05:00 +8°C° 0 mm 0 m/s 733 mmHg 82%
    06:00 +8°C° 0 mm 0 m/s 733 mmHg 82%
    07:00 +7°C° 0 mm 0 m/s 733 mmHg 83%
    08:00 +7°C° 0 mm 0 m/s 733 mmHg 84%
    09:00 +9°C° 0 mm 0 m/s 733 mmHg 77%
    10:00 +11°C° 0 mm 0 m/s 733 mmHg 70%
    11:00 +12°C° 0 mm 0 m/s 733 mmHg 62%
    12:00 +13°C° 0 mm 0 m/s 733 mmHg 58%
    13:00 +15°C° 0 mm 1 m/s 733 mmHg 55%
    14:00 +16°C° 0 mm 1 m/s 732 mmHg 51%
    15:00 +15°C° 0 mm 1 m/s 732 mmHg 55%
    16:00 +13°C° 0 mm 0 m/s 732 mmHg 60%
    17:00 +11°C° 0 mm 0 m/s 732 mmHg 64%
    18:00 +11°C° 0 mm 0 m/s 732 mmHg 65%
    19:00 +11°C° 0 mm 0 m/s 732 mmHg 67%
    20:00 +10°C° 0 mm 0 m/s 733 mmHg 68%
    21:00 +10°C° 0 mm 0 m/s 733 mmHg 69%
    22:00 +10°C° 0 mm 0 m/s 733 mmHg 70%
    23:00 +10°C° 0 mm 0 m/s 733 mmHg 70%
    Arată mai mult